Campo, CA

9:34 PM PST on December 12, 2019 (GMT -0800)
Campo

Weather History for KCZZ - November, 2019

Change the Weather History Date:

Monday, November 18, 2019

  Actual Average Record
Temperature  
Mean Temperature 66 °F 52 °F  
Max Temperature 81 °F 69 °F 87 °F (1995)
Min Temperature 51 °F 36 °F 21 °F (1971)
Degree Days  
Heating Degree Days 0 13  
Month to date heating degree days 83 187  
Since 1 July heating degree days 305 397  
Cooling Degree Days 1 0  
Month to date cooling degree days 1 0  
Year to date cooling degree days 829 839  
Growing Degree Days 16 (Base 50)    
Moisture  
Dew Point 19 °F    
Average Humidity 19    
Maximum Humidity 28    
Minimum Humidity 9    
Precipitation  
Precipitation 0.00 in 0.04 in 1.00 in (1964)
Month to date precipitation 0.00 0.55  
Year to date precipitation 13.53 12.88  
Sea Level Pressure  
Sea Level Pressure 29.86 in    
Wind  
Wind Speed 9 mph (ENE)    
Max Wind Speed 22 mph    
Max Gust Speed 28 mph    
T = Trace of Precipitation, MM = Missing Value Source: NWS Daily Summary

Daily Weather History Graph

Daily Weather History Graph

Search for Another Location

Airport or City:

Astronomy

Nov. 18, 2019 Rise Set
Actual Time 6:18 AM PST 4:43 PM PST
Civil Twilight 5:52 AM PST 5:09 PM PST
Nautical Twilight 5:22 AM PST 5:39 PM PST
Astronomical Twilight 4:52 AM PST 6:08 PM PST
Moon 10:33 PM PST (11/18) 11:51 AM PST (11/18)
Length of Visible Light 11h 17m
Length of Day
10h 25m
Waning Gibbous, 62% of the Moon is Illuminated
Nov 18
Waning Gibbous
Nov 19
Last Quarter
Nov 26
New
Dec 3
First Quarter
Dec 11
Full

Hourly Weather History & Observations

Time (PST) Temp. Dew Point Humidity Pressure Visibility Wind Dir Wind Speed Gust Speed Precip Events Conditions
12:52 AM 54.0 °F 19.0 °F 25% 29.94 in - NE 11.5 mph - N/A   Unknown
1:52 AM 57.9 °F 19.0 °F 22% 29.92 in - Variable 4.6 mph - N/A   Unknown
2:52 AM 57.9 °F 19.0 °F 22% 29.90 in - NNE 9.2 mph - N/A   Unknown
3:52 AM 57.0 °F 19.0 °F 23% 29.89 in - NNE 4.6 mph - N/A   Unknown
4:52 AM 55.9 °F 19.9 °F 25% 29.91 in - Variable 5.8 mph - N/A   Unknown
5:52 AM 57.0 °F 18.0 °F 22% 29.92 in - ENE 10.4 mph - N/A   Unknown
6:52 AM 59.0 °F 17.1 °F 20% 29.94 in - NE 11.5 mph - N/A   Unknown
7:52 AM 70.0 °F 18.0 °F 14% 29.93 in - East 9.2 mph - N/A   Unknown
9:52 AM 80.1 °F 19.0 °F 10% 29.87 in - East 20.7 mph - N/A   Unknown
10:52 AM 78.1 °F 19.0 °F 11% 29.85 in - ENE 21.9 mph - N/A   Unknown
11:52 AM 80.1 °F 18.0 °F 10% 29.83 in - ENE 18.4 mph - N/A   Unknown
12:52 PM 79.0 °F 18.0 °F 10% 29.82 in - ENE 18.4 mph 23.0 mph N/A   Unknown
1:52 PM 79.0 °F 18.0 °F 10% 29.80 in - ENE 11.5 mph - N/A   Unknown
2:52 PM 78.1 °F 17.1 °F 10% 29.80 in - ENE 16.1 mph - N/A   Unknown
3:52 PM 75.9 °F 18.0 °F 11% 29.81 in - East 5.8 mph - N/A   Unknown
4:52 PM 71.1 °F 18.0 °F 13% 29.82 in - East 5.8 mph - N/A   Unknown
5:52 PM 64.9 °F 19.0 °F 17% 29.84 in - Calm Calm - N/A   Unknown
6:52 PM 57.9 °F 19.0 °F 22% 29.86 in - NE 3.5 mph - N/A   Unknown
7:52 PM 55.0 °F 19.9 °F 25% 29.85 in - Calm Calm - N/A   Unknown
9:52 PM 53.1 °F 21.0 °F 29% 29.83 in - North 3.5 mph - N/A   Unknown
10:52 PM 54.0 °F 21.9 °F 29% 29.81 in - NNE 4.6 mph - N/A   Unknown
11:52 PM 54.0 °F 19.9 °F 26% 29.79 in - Calm Calm - N/A   Unknown